CAPE
1473 1905 1608 1766 1914 1917 1650 2071 2485 2314 1895 2053 2196 2208 2131 2163 2100 1876 2366 2308 1700 2437 2416 2769 3341 2785 2409 2916 2065 2839 3584 3228 3196 4082 4291 4264 4185 4412 3871 4453 5008 4426 4450 3998 2877 3209 4366 3536 3688 3871 3588 3286 3460 2998 2596 2052 2601 3624 3162 3508 3734 4270 4128 4093 4160 4491 4442 3930 3418 2723 1972 1864 1275 2248 1466 1134 825 1631 1381 1309 2304 2045 1649 1208 790
1428 1732 1936 1372 973 1252 1271 1298 1695 2338 1842 1907 2279 1915 1380 2100 2366 2170 2146 2216 2148 1712 2197 1890 2592 2586 1859 2200 2678 2639 3442 3575 2865 3196 3808 4061 3895 3160 3430 5013 5368 4552 4048 4570 4362 3143 3346 3955 3772 3453 3941 3662 3147 2192 2322 1158 1154 1260 3068 2622 1888 2148 4582 5338 4811 4447 3602 3430 3514 3195 2340 1870 1294 2129 1930 1959 1533 1666 1482 1395 945 553 345 370 390
882 1699 1701 1668 1650 1174 1210 1342 1308 1526 1920 1913 1808 1491 1740 1593 1778 2282 1922 1646 2227 2177 1692 1565 2773 2805 2608 2732 3366 3103 4222 3237 3266 3680 3934 4001 3874 3010 2070 3662 3741 3452 3523 3820 3215 3504 3395 3360 3009 3140 2206 2129 2709 2438 2856 2236 2221 1995 1739 2028 1840 2343 3187 4764 3644 2976 2960 3133 2963 2232 2055 2260 2234 2238 2370 2154 1642 1333 1747 1344 722 400 557 455 419
1596 2054 1659 1402 1012 938 1281 1228 854 885 974 1233 1399 1308 1450 1381 2003 1344 1372 1188 1807 2402 1806 1333 2575 3257 2704 2884 3889 3284 3617 3339 2922 3246 3798 3910 3708 3967 3704 4130 3551 3403 3370 3077 2844 3131 2771 3221 2556 2242 2407 2935 3466 3322 2402 2023 1441 2288 2183 2656 3054 2501 2954 2886 3134 3346 2830 2592 2763 2684 2790 2890 2769 2405 2171 1324 1302 1342 1290 1474 1146 821 1297 1133 371
905 1315 1263 1356 1372 1215 726 747 801 648 610 702 1117 1166 986 1201 1567 1510 1300 1572 1813 1790 2204 1995 2695 2954 1867 2731 3073 3272 3576 3157 3174 2428 2562 3147 3561 3058 3558 3748 3412 3494 3104 3082 2480 3112 2946 2734 2363 2375 2735 2560 2422 2228 1591 1732 1945 2130 1809 2206 2296 1990 1941 2378 2108 1531 1394 1732 2480 2724 3140 3013 2671 2458 2310 1565 1384 1242 1362 1076 1011 1112 2012 1202 507
1855 2134 1903 1606 2143 2017 1681 677 558 576 401 310 391 656 960 1332 1185 1430 1262 1210 1775 1578 1497 1447 2239 2789 2693 2634 3570 3474 3294 3527 3634 3331 2241 2530 2870 2805 2912 3410 2961 3061 2765 2356 2322 2334 1988 2301 2268 1867 1752 1612 1486 1976 2300 2045 987 862 804 967 2072 2010 1995 1663 2030 2606 2613 2276 2111 2274 2973 2737 1826 2752 1821 1164 891 638 884 1437 2019 2359 1977 1756 1464
2499 2680 1941 1767 2241 2203 1811 506 614 304 526 309 247 341 411 358 1424 1376 1240 1183 1196 1503 1321 1877 2605 3050 2883 2422 2305 3327 3482 3112 3929 3732 3243 3030 3074 3199 2456 2582 2430 2371 2139 1800 1365 1551 1664 1542 1986 2011 1800 2028 1620 1444 1775 1981 1076 1270 2656 2324 995 1032 1388 2092 2506 2536 2202 1536 1420 1401 1440 1555 1696 979 750 979 1114 1293 1161 2204 1800 1656 2446 2491 2164
2462 3125 2186 2291 2528 2170 1506 1429 1472 1023 663 883 975 238 154 167 451 1373 1514 1213 1041 602 1445 1609 1169 2759 2716 2245 2192 2605 3680 3280 3670 3952 3731 3088 2592 2993 2930 2364 1762 1666 1322 1629 1094 601 641 571 296 895 1311 1844 1711 1526 1492 1473 1613 1620 2453 2844 3255 3448 3129 2670 2770 3028 2941 2304 1801 1689 2184 2060 1912 1892 1711 1209 1840 2904 3488 806 617 1988 1564 1708 1765
2736 3344 2802 2698 3022 2469 2335 2341 2525 2461 1979 1892 917 940 748 545 683 742 1110 935 652 908 566 1201 1083 1314 1933 2420 2165 1724 2580 3203 2785 3178 2667 3427 2982 1807 2041 2176 1942 1858 1736 939 734 939 534 290 130 91 845 2897 1915 2275 1361 2569 1864 2168 2366 2292 2862 3075 3506 3510 3514 3621 3660 3096 2666 2461 2207 2207 2299 2209 2507 2177 704 399 1133 2290 1716 1609 1809 2019 2700
3417 3412 3404 3118 3420 3180 3155 3013 2701 2797 2521 1867 2517 1880 913 1362 346 371 414 463 738 938 747 856 318 1132 1551 1960 1611 1432 1157 1410 2350 2423 2454 2328 2183 1932 1592 2405 2166 1919 2302 1905 936 493 300 343 176 876 549 297 967 2923 1659 1064 1538 851 2132 2623 3034 2971 3353 3469 3324 3196 3202 3233 2783 1940 1455 1110 735 457 713 662 502 965 1890 2283 2590 2970 3198 3412 3394
4415 4164 4132 3879 3867 3584 3485 3263 3176 2866 2844 3046 2902 3017 3166 3314 2946 2427 1015 875 806 1549 1327 554 271 232 340 553 927 781 978 800 1585 1588 1375 2016 2033 2426 2226 2377 2314 2876 1957 1817 2231 1732 1142 1013 670 1319 2374 3050 3691 1702 1461 929 1802 1955 1756 1960 2632 2721 2251 2234 2185 2307 2391 2238 2139 1911 1200 1197 1466 1393 1177 637 1422 3044 3084 3338 3526 3550 3595 3362 3252
3734 3966 3233 3484 3255 3351 4454 3688 3532 3712 3728 3874 3926 3742 3984 3844 3950 3470 1839 747 2386 964 633 742 1149 633 166 115 153 73 685 990 9 686 815 986 1899 2755 1280 1105 1172 1362 1484 1399 1501 1162 1310 728 376 185 564 2628 3111 3063 2945 2537 2268 2358 2110 1922 1763 1825 1814 2083 2351 2712 2833 2572 2715 2709 2420 2079 2195 2340 2080 2562 3653 3461 3558 3433 3460 3565 3414 3212 2980
3390 3236 3038 3285 3173 2846 3069 3977 4081 4169 3997 3858 3870 4020 4041 4102 3968 3607 3040 2274 1453 1813 2075 1309 1175 1232 673 1385 847 866 184 856 576 569 756 878 962 1371 1454 1038 737 410 696 990 1074 1288 1432 1302 811 389 261 1580 2136 1921 4060 3700 2759 1818 1852 1964 1975 1699 1641 1598 1080 1540 1467 1993 2013 1837 1570 1774 2337 2622 3499 3952 3529 3281 3017 2719 2725 2647 2589 2428 2299
2505 2636 2778 3066 2852 3041 3112 3235 3317 3076 3577 3909 4155 4292 4518 4230 3625 3751 3396 3732 3725 3641 2386 3518 3060 2096 1659 1303 882 816 578 686 748 711 788 869 910 1078 1426 1376 1240 959 1061 792 336 687 1102 2095 2302 2228 2596 2328 1561 1758 1948 3370 4464 3874 3467 3144 2809 3042 2979 2948 2963 2697 2257 1890 1777 1641 1738 2518 2810 3531 3682 2747 2591 2509 2412 2210 2279 2180 2093 2037 2040
2352 2425 2477 2763 2595 2418 2288 2112 1768 2172 2408 2448 2500 2780 2555 2644 2976 3294 3423 3344 3128 2920 3185 3204 2710 1989 1506 1046 618 736 998 808 793 710 739 798 874 928 1601 1538 1490 1422 1292 1275 1900 2224 2851 2566 2763 2442 2879 1852 1253 1612 1942 2119 3701 3577 3515 3098 2806 3163 2186 2073 1548 2746 2696 2561 2767 2457 1949 1984 3169 2673 2658 2463 2260 2520 2786 2784 2619 2413 2368 2408 2354
1615 1740 1852 1791 2069 2075 2076 2025 1668 1673 1767 2046 2205 2187 2437 2354 2028 1902 2093 2010 2404 2703 2718 2453 2581 2157 1718 1336 1024 762 868 1027 1088 1028 893 937 930 1352 1640 2220 2301 1935 1797 1906 2295 2787 3187 2758 2880 2598 2182 1212 1274 1499 1967 2191 2665 3017 3032 2783 2406 2144 1807 2310 1653 1734 1888 2076 2694 2941 3052 2442 2289 2394 2331 2099 1832 2069 1852 1849 1793 2024 2160 2202 2234
1189 1203 1310 1161 1368 1396 1360 1629 1440 1590 2036 1916 2134 1991 1770 1680 1654 1458 1512 1498 1687 2036 2064 2087 2002 1963 1955 1800 1583 1388 1018 936 1032 1207 1249 1151 1054 1377 2114 2136 2346 2104 1889 2562 2358 3030 2888 2714 2454 2469 1479 1198 1233 1379 1686 1926 2352 2520 2703 2269 2204 2021 2328 1896 1789 2469 2395 2315 2043 2012 2027 2119 2363 2396 2112 1849 1949 1864 1879 1660 1838 1865 1968 1933 2017
806 874 843 972 1048 1022 1130 997 983 1339 1701 1588 1388 1504 1265 1263 1369 1335 1283 1294 1398 1498 1604 1530 1451 1416 1609 1743 1472 1377 1355 1162 1008 940 1029 1185 1166 1104 1667 2193 2072 2249 1908 2379 2432 2315 2212 2084 1248 1080 1184 1277 1324 1452 1403 1353 1607 1833 1980 1884 2048 2129 1985 1666 1702 2045 2009 2026 2224 2408 2563 2467 2203 2168 2229 1952 1551 1535 1585 1566 1609 1485 1680 1788 1786
518 489 456 754 918 1010 883 866 844 1074 1075 1118 961 920 947 964 1069 1102 1209 1292 1266 1284 1173 1152 1130 1180 1212 1262 1234 1223 1265 1127 1063 1037 1020 1058 1110 1098 1124 1733 2000 2033 2183 1608 1758 2038 1642 1215 1218 1150 969 902 1099 1242 1318 1307 1329 1264 1292 1278 1399 1703 1694 1262 1343 1404 1386 1638 1793 2084 2188 2389 3030 2791 2120 1284 1669 1474 1302 1135 1192 1531 1570 1507 1488
521 432 360 297 602 738 1013 684 810 601 603 645 530 734 791 702 761 787 982 968 860 942 999 928 981 1094 1107 1087 1138 1157 1146 964 850 973 1016 1016 945 877 894 1172 1481 1524 1557 1903 1690 1412 1483 1035 1105 1128 974 829 836 916 1014 1062 1016 981 971 942 926 1318 842 802 738 686 1097 1376 1698 1910 2130 2412 2706 3261 2308 1548 1868 2268 1926 1540 1641 1556 1750 1430 1201
507 451 389 329 307 298 283 317 396 372 354 401 432 550 356 502 490 406 437 565 592 626 659 630 678 708 722 674 757 911 830 750 767 810 760 734 722 698 651 661 796 958 1418 1666 1000 1473 1490 963 805 806 787 761 626 624 658 697 672 574 531 646 496 476 430 411 380 326 808 1243 1705 1982 2250 1967 1947 2829 1966 1792 2205 1850 1681 2203 1888 2082 1884 1564 1298
457 500 470 538 525 434 398 403 356 346 466 463 260 266 372 474 502 483 255 159 114 272 332 353 326 289 334 276 290 326 405 434 439 485 529 497 498 534 548 594 652 678 908 1325 1140 1264 1346 567 493 559 574 553 511 487 458 430 366 294 486 199 172 171 162 138 215 611 997 1114 1161 1240 1656 1616 1174 1296 1259 1782 1314 1081 1054 1166 1998 2350 2577 2318 1718
217 206 225 415 488 432 331 196 99 51 246 286 222 312 300 175 53 97 145 120 38 110 171 160 138 102 6 0 40 61 63 222 309 348 368 356 395 435 458 496 473 382 374 567 313 446 398 368 342 288 231 152 84 46 48 85 90 62 31 22 0 0 0 0 226 843 1149 975 1142 1288 1309 1344 1627 1928 903 700 164 168 174 240 670 1376 2278 2400 2260
134 62 62 201 280 332 420 199 54 172 155 115 63 1 14 117 196 214 196 236 105 105 89 99 92 36 6 10 48 18 0 0 140 179 180 223 242 253 260 250 244 234 182 152 97 111 180 142 83 0 0 0 0 0 0 0 0 0 0 0 0 0 0 1 461 1001 638 716 812 930 604 403 254 246 255 95 8 16 130 257 546 895 704 788 825
0 0 0 69 166 98 26 116 105 117 16 49 46 10 9 40 53 75 111 98 82 79 191 110 185 138 133 142 58 26 0 0 0 0 0 0 0 27 28 30 28 0 0 0 0 0 0 0 0 0 0 0 0 0 0 0 0 0 0 0 0 0 0 378 296 0 56 105 46 0 0 0 3 2 0 0 9 47 58 160 22 4 2 0 0
0 0 0 51 55 0 28 0 2 24 0 8 25 26 2 9 77 112 87 5 22 48 64 109 106 90 189 150 102 77 2 7 4 0 1 0 0 0 0 0 0 0 12 0 0 0 0 0 0 0 0 0 0 0 16 107 0 0 0 0 0 0 0 0 0 0 0 0 0 0 0 0 0 0 0 5 0 0 91 5 0 0 0 0 0
0 0 0 0 0 21 13 5 0 0 0 0 1 8 18 4 9 27 117 26 6 30 0 64 97 62 9 89 46 52 16 0 0 0 0 0 0 0 0 0 0 0 0 0 0 0 0 0 0 0 0 0 0 0 0 0 0 0 0 10 2 0 0 0 0 0 0 0 0 0 0 0 0 0 0 0 0 3 0 0 0 0 0 0 0
0 0 0 0 0 0 0 0 14 0 0 0 0 0 0 0 0 0 0 0 0 0 0 0 35 0 0 43 99 1 0 0 0 0 0 0 0 0 0 0 0 0 0 0 0 0 0 0 0 0 0 0 0 0 0 0 0 0 0 0 0 0 0 0 0 0 0 0 0 0 0 1 0 0 0 0 0 0 0 0 0 0 0 0 0
0 0 0 0 0 0 0 0 0 7 0 0 0 0 0 0 0 0 0 0 0 0 0 0 0 0 0 0 0 0 0 0 0 0 0 0 0 0 0 0 0 0 0 0 0 0 0 0 0 0 0 0 0 0 0 0 23 0 0 0 0 0 0 0 0 0 0 0 0 0 0 0 0 0 0 0 0 0 0 0 0 0 0 0 0
0 0 0 0 0 0 0 0 56 14 3 0 0 0 0 0 0 0 0 0 0 0 0 0 0 0 0 0 0 0 0 0 0 0 0 0 0 0 0 0 0 0 0 0 0 0 0 0 0 0 0 0 0 0 0 0 0 0 0 0 0 0 0 0 0 0 0 0 0 0 0 0 0 0 0 0 0 0 0 0 0 0 0 0 0
1 0 0 0 0 0 0 0 1 7 54 8 2 0 0 0 0 0 0 0 0 0 0 0 0 0 0 0 0 0 0 0 0 0 0 0 0 0 0 0 0 0 0 0 0 0 0 0 0 0 2 0 0 0 0 0 0 0 0 0 0 0 0 0 0 0 0 0 0 0 0 0 0 1 0 0 0 0 0 0 0 0 0 0 0
2 9 0 0 0 0 2 0 0 8 8 31 20 0 0 0 0 0 0 0 0 0 0 0 0 0 0 0 0 0 0 0 0 0 0 0 0 0 0 0 0 0 0 0 0 0 0 0 0 1 1 0 0 0 0 0 0 0 0 0 0 0 0 0 0 0 0 0 0 0 0 0 0 0 0 0 0 0 0 0 0 0 0 0 0
1 0 0 0 0 0 0 0 0 0 0 0 0 0 4 12 2 0 0 0 0 0 0 0 0 0 0 0 0 0 0 0 0 0 0 0 0 0 0 0 0 0 0 0 0 0 0 0 2 6 4 2 1 0 0 0 0 0 0 0 0 0 0 2 0 3 2 0 0 0 0 0 0 0 0 0 0 0 0 0 0 0 0 0 0
0 0 0 0 0 2 4 0 0 0 0 5 3 2 0 1 12 10 0 0 0 0 0 0 0 0 0 0 0 0 0 0 0 0 0 0 0 0 0 0 0 0 0 0 0 0 2 2 0 0 0 0 0 0 1 5 8 8 4 4 2 2 3 1 0 2 0 0 0 0 0 0 0 0 0 0 0 0 0 0 0 0 0 0 0
0 0 0 0 0 0 0 0 0 0 0 0 0 0 0 13 0 0 3 13 4 0 0 0 0 0 0 0 0 0 0 0 0 0 0 0 0 0 0 0 0 3 0 0 0 1 2 6 4 11 5 2 6 4 5 7 6 2 1 0 0 0 0 0 2 2 0 0 0 0 0 0 0 0 0 0 0 0 0 0 0 0 0 0 0
0 0 0 0 0 0 0 0 0 0 0 0 0 0 0 0 0 7 1 0 0 0 5 0 0 0 0 0 0 0 0 0 0 0 0 0 0 0 0 0 0 0 2 11 2 9 15 6 1 4 1 0 1 4 3 0 2 1 1 0 2 4 2 4 2 0 0 1 3 3 2 4 3 1 0 0 0 0 0 0 0 0 0 0 0
0 0 0 0 0 1 0 0 0 0 0 0 0 0 0 0 0 0 0 0 2 5 10 4 0 0 0 0 0 0 0 0 0 0 0 0 0 0 0 0 0 0 0 0 2 2 5 6 4 0 1 3 6 3 6 4 8 8 5 17 18 13 3 4 1 6 17 6 1 9 7 2 3 0 0 0 0 0 0 0 0 0 0 0 0
0 0 0 0 0 0 0 0 0 0 0 0 0 0 0 0 0 0 0 0 0 0 0 8 6 13 3 0 0 0 0 0 0 0 0 0 0 0 0 0 0 3 8 13 19 11 8 6 7 16 11 5 4 3 2 4 6 2 4 9 13 13 8 13 17 20 15 12 8 6 1 0 0 0 0 0 0 0 0 0 0 0 0 0 0
8 0 0 0 0 0 0 0 0 0 0 0 0 0 0 0 0 0 0 0 0 0 0 0 0 0 14 12 1 0 0 1 5 3 0 1 1 1 0 2 14 6 3 6 3 12 11 10 8 6 16 12 12 13 12 7 9 8 18 9 3 4 4 3 4 10 2 4 4 4 2 2 0 0 0 0 0 0 0 0 0 0 0 0 0
2 0 0 0 0 0 0 0 0 0 0 0 0 0 0 0 0 0 0 0 0 2 0 0 1 6 0 0 0 0 0 0 0 0 0 0 0 0 2 0 0 2 4 6 0 0 0 1 0 0 1 0 2 4 8 10 5 3 6 6 3 2 3 2 3 4 3 2 1 3 0 0 0 0 0 0 0 0 0 0 0 0 0 0 0
0 0 0 0 0 0 0 0 0 0 0 0 0 0 0 0 0 0 0 0 0 0 0 0 0 0 0 0 0 0 0 0 0 0 0 0 0 0 0 1 2 0 0 0 0 0 0 0 0 0 0 0 0 0 4 5 5 2 0 0 0 1 2 3 2 0 0 0 0 0 0 0 0 0 0 0 0 0 0 0 0 0 0 0 0
0 0 0 0 0 0 0 0 0 0 0 0 0 0 0 0 0 0 0 0 0 0 0 0 0 0 0 0 0 0 0 0 0 0 0 0 0 0 0 3 0 3 0 0 0 0 0 0 0 0 0 0 1 2 2 2 2 1 0 0 0 0 0 0 0 0 1 0 0 0 0 0 0 0 0 0 0 0 0 0 0 0 0 0 0
35 10 0 0 0 0 0 0 0 0 0 0 0 0 0 0 0 0 0 0 0 0 0 0 0 0 0 0 0 0 0 0 0 0 0 0 0 0 0 1 0 1 0 0 0 0 0 0 0 0 2 1 8 8 2 2 4 1 1 0 0 0 0 0 0 0 0 0 0 0 0 0 0 0 0 0 0 0 0 0 0 0 0 0 0
9 6 18 4 0 0 0 0 0 0 0 0 0 0 0 0 0 0 0 0 0 0 0 0 0 0 0 0 0 0 0 0 0 0 0 0 0 0 0 0 0 0 0 0 0 0 0 0 1 2 4 6 6 9 4 0 0 1 3 1 1 3 0 0 0 0 0 0 0 0 0 0 0 0 0 0 0 0 0 0 0 0 0 0 0
3 32 12 8 0 1 7 34 2 0 0 0 0 0 0 0 0 0 0 0 0 0 0 0 0 0 0 0 0 0 0 0 0 0 0 0 0 0 0 3 3 1 0 1 0 0 0 1 1 2 2 3 4 4 1 2 3 1 1 2 1 0 0 0 0 0 0 0 0 0 0 0 0 0 0 0 0 0 0 0 0 0 0 0 2
19 2 0 3 1 0 3 0 0 0 0 0 0 0 0 0 0 0 0 0 0 0 0 0 0 0 0 0 0 0 0 0 0 0 0 0 0 1 3 1 2 2 1 1 1 4 1 1 1 2 2 5 4 1 1 3 4 3 7 0 0 0 1 0 0 1 1 0 0 0 0 1 0 0 0 0 0 0 0 0 2 2 2 3 5
6 0 0 0 0 2 0 0 2 0 0 0 0 0 0 0 0 0 0 0 0 0 0 0 0 0 0 0 0 0 0 0 0 0 1 2 4 3 3 5 2 0 0 0 0 0 1 1 2 1 4 3 3 5 2 1 4 6 2 0 0 1 2 0 0 0 0 0 0 0 0 0 0 0 0 0 0 0 0 1 2 3 1 4 5
0 0 0 0 0 0 0 0 0 0 0 0 0 0 0 0 0 0 0 0 0 0 0 0 0 0 0 0 0 0 0 0 0 0 0 0 0 1 3 3 1 0 2 2 2 2 1 2 2 4 3 8 6 3 6 6 3 13 2 1 3 2 1 2 0 0 0 0 0 0 0 0 0 0 0 0 0 0 2 2 0 4 0 9 9
0 0 0 0 2 4 0 0 0 0 0 0 0 0 0 0 0 0 0 0 0 0 0 0 0 0 0 0 0 0 0 0 0 0 0 0 0 2 4 6 4 4 1 1 1 2 6 4 6 2 1 3 6 5 2 7 3 4 1 1 1 2 2 2 0 0 0 0 0 0 0 0 0 0 0 0 0 2 0 0 1 1 0 5 9
2 14 0 0 0 0 0 0 0 0 0 0 0 0 0 0 0 0 0 0 0 0 0 0 0 0 0 0 0 0 0 0 0 0 0 0 0 1 2 4 7 1 2 2 2 3 0 1 1 1 0 9 2 7 2 2 2 1 1 1 1 2 1 0 0 0 0 0 0 0 0 0 0 0 0 0 2 0 0 1 1 2 1 1 1
36 13 3 0 1 10 2 0 0 0 1 2 2 3 1 0 0 0 0 0 0 0 0 0 0 0 0 0 0 0 0 0 0 0 0 0 0 1 2 1 1 0 2 2 2 2 1 1 2 0 3 4 4 1 0 0 1 2 2 2 1 1 0 0 0 0 0 0 0 0 0 0 0 1 1 0 0 0 3 1 1 1 2 2 3
Wind_Speed
14 10 10 9 10 10 9 8 10 9 8 8 8 6 7 6 7 7 7 7 7 6 6 3 6 4 6 5 7 6 7 6 6 7 6 6 3 5 5 7 4 3 3 1 1 1 4 4 3 3 3 4 4 5 5 7 9 11 11 9 7 9 11 11 10 8 8 8 7 7 6 7 8 9 7 7 6 6 5 4 4 4 7 8 8
15 13 12 10 10 10 10 10 10 10 8 9 7 7 7 10 10 10 7 7 7 7 7 6 7 5 6 8 7 9 8 7 8 7 7 6 5 6 8 8 6 4 4 4 5 3 3 4 4 4 5 7 7 6 6 4 5 6 11 11 12 8 10 12 11 10 7 7 6 6 4 8 7 8 5 3 5 4 2 2 2 2 4 6 7
17 15 14 13 11 10 10 11 10 10 9 9 7 8 9 9 12 11 7 9 8 8 8 8 9 8 6 9 12 9 8 8 6 8 6 8 6 4 6 9 8 6 6 6 5 6 5 5 5 5 7 5 3 3 3 2 6 9 8 10 11 9 10 11 10 9 8 7 6 4 5 6 5 3 3 2 2 1 3 3 2 2 2 5 7
20 19 16 13 10 11 11 12 11 9 9 10 8 9 11 11 12 10 8 10 11 9 9 9 12 9 11 10 11 11 9 8 9 9 8 7 7 6 7 7 7 4 6 7 7 7 7 7 5 5 4 7 10 9 9 10 9 7 8 10 11 11 11 11 12 11 9 7 7 5 5 5 4 4 4 1 1 2 1 2 3 3 5 6 8
20 19 17 14 14 14 11 11 11 11 10 10 10 10 10 12 13 11 11 10 13 12 12 10 14 12 10 12 11 12 11 9 9 7 9 9 8 6 6 8 8 7 6 7 6 7 7 6 6 7 7 7 7 6 5 6 6 8 8 6 7 9 9 9 8 8 9 10 9 8 7 6 6 6 4 0 2 1 3 2 2 5 8 10 8
22 23 19 17 18 16 15 13 12 12 11 10 10 10 13 15 13 12 12 14 15 10 12 13 14 12 10 12 11 11 10 9 9 8 7 9 9 8 7 7 8 8 7 7 8 7 6 7 7 7 7 7 6 7 7 6 5 3 4 6 7 6 5 7 9 10 11 11 9 7 7 6 4 3 2 2 2 1 2 4 6 8 10 11 13
22 24 21 19 20 18 16 14 14 14 14 12 12 14 13 13 17 15 13 13 12 14 11 14 16 13 12 11 12 12 11 10 10 9 7 9 9 7 7 7 8 7 6 6 7 8 8 8 9 9 8 8 7 8 7 8 7 6 6 6 6 7 7 7 7 7 7 7 7 7 4 4 3 1 1 2 2 3 3 8 11 13 14 16 14
22 23 22 21 21 19 18 18 17 18 18 17 16 14 15 14 16 18 17 15 13 11 15 13 15 16 15 13 13 14 13 11 10 11 9 8 7 8 7 7 7 7 7 7 7 6 6 6 7 9 10 9 9 8 8 8 9 10 10 9 9 10 9 7 6 5 5 6 6 6 7 5 5 5 4 4 6 8 10 11 12 15 16 20 20
21 23 22 20 22 22 21 20 20 21 21 20 17 18 19 18 19 20 20 15 14 12 13 22 14 18 18 18 16 15 14 12 11 12 12 10 10 7 7 7 8 8 8 6 8 9 7 6 5 nan 9 10 12 12 11 16 15 13 12 12 12 12 10 10 8 7 7 7 6 7 7 7 8 7 9 10 11 8 11 15 15 16 18 19 21
22 22 22 20 23 24 23 22 22 23 23 22 23 21 21 22 19 19 19 18 18 18 18 19 18 20 22 18 16 14 16 16 13 11 11 12 10 8 7 10 11 10 9 10 8 7 6 6 5 4 9 1 1 12 13 15 14 12 14 15 14 13 12 11 11 10 9 9 10 10 10 10 11 12 12 12 10 13 15 16 15 15 16 17 19
25 23 23 22 23 24 24 23 24 24 26 26 24 24 25 24 25 24 22 21 19 21 21 20 18 18 19 18 17 18 18 22 17 16 16 15 14 14 12 12 13 13 13 12 12 11 10 10 9 10 15 13 16 16 13 12 13 13 13 13 14 15 13 12 11 11 10 10 11 11 12 12 12 13 12 11 15 14 13 13 12 12 13 12 13
27 25 26 28 29 26 26 24 24 26 25 26 26 25 25 25 25 24 23 21 24 20 19 21 21 20 19 20 17 nan 29 27 nan 29 25 23 21 18 16 16 16 16 15 13 13 12 11 9 8 8 13 19 14 13 13 14 14 13 12 12 13 13 14 13 12 10 10 10 11 11 11 11 12 13 12 12 13 13 12 11 11 11 10 10 11
27 26 25 30 22 25 24 23 26 26 26 26 27 27 26 25 24 24 22 23 24 23 22 21 21 22 22 27 29 31 27 29 28 31 29 29 28 23 19 20 18 17 17 17 16 16 14 13 11 11 10 20 21 18 12 12 14 14 13 12 12 12 12 12 12 11 9 9 10 9 10 11 11 14 15 15 16 14 13 12 13 12 11 9 9
30 32 31 28 27 27 27 23 26 28 30 30 30 29 28 27 25 26 26 25 25 28 27 30 31 32 32 32 31 30 31 29 29 29 31 30 30 27 24 22 21 20 20 19 18 17 16 18 20 23 24 24 21 21 19 16 14 16 15 16 16 14 13 12 9 9 10 12 12 11 12 15 14 18 19 19 17 15 14 12 14 13 12 12 11
35 33 34 32 28 27 27 28 24 29 31 31 28 29 28 27 23 28 29 31 26 24 23 28 30 31 32 33 32 32 31 32 31 31 31 31 29 26 24 23 23 22 21 22 22 24 24 24 24 24 25 27 25 24 23 20 18 18 19 19 19 20 19 22 19 18 18 18 16 14 14 16 20 21 21 20 19 18 18 16 16 15 13 13 16
37 33 35 33 31 31 32 32 34 30 29 29 30 29 30 30 32 33 31 29 24 22 31 31 30 30 32 33 34 34 34 36 34 32 32 31 27 26 25 25 24 23 22 21 25 26 25 26 25 25 28 28 27 26 24 21 20 21 22 22 22 22 22 27 27 26 25 23 22 22 23 23 23 21 20 20 19 19 18 18 18 17 15 15 17
40 38 39 37 36 36 37 38 36 32 30 33 35 36 36 35 34 31 30 27 29 36 35 34 32 32 35 36 36 37 38 38 39 36 35 34 30 30 28 27 25 25 26 29 26 27 28 28 28 27 29 29 27 27 26 24 23 23 23 22 23 22 24 28 25 26 24 21 20 20 20 20 18 16 17 17 18 22 21 19 20 20 18 17 17
43 41 42 43 43 43 43 42 42 39 33 33 35 36 37 37 36 35 34 34 37 39 40 38 36 36 36 36 36 37 38 38 38 36 35 34 31 31 31 31 31 30 27 28 28 29 30 35 33 30 30 29 29 29 28 27 27 26 25 24 23 23 25 27 28 25 24 23 22 21 20 19 17 17 20 22 20 26 25 20 19 21 21 21 19
40 42 42 42 44 47 50 51 46 40 38 40 38 39 38 36 33 35 36 36 37 37 36 35 34 33 34 35 37 36 34 33 34 32 32 32 32 31 32 32 32 32 31 29 29 31 30 35 37 35 32 30 31 30 29 28 28 28 28 25 24 23 28 30 28 26 25 25 24 24 22 20 21 23 25 24 24 30 28 24 23 24 23 24 23
31 35 38 40 43 46 49 50 48 44 43 43 41 41 39 39 37 38 38 38 36 34 33 33 34 33 31 32 33 32 30 28 29 29 28 28 29 28 29 32 33 33 34 34 32 32 31 34 35 36 35 34 32 32 31 31 29 29 29 27 26 26 30 29 28 27 26 25 25 24 22 21 22 24 26 26 27 27 26 26 26 26 26 26 26
26 29 32 35 36 38 43 49 50 47 43 42 40 39 39 41 40 39 39 39 35 31 31 33 33 32 31 32 31 30 27 26 27 28 28 29 28 25 25 34 35 33 34 33 32 33 33 35 36 37 36 35 33 31 31 30 29 29 29 29 29 29 29 28 27 25 27 26 27 27 27 27 25 27 27 29 28 27 27 28 30 29 28 26 27
31 30 30 32 30 29 32 38 44 45 43 40 43 46 46 43 40 40 43 43 33 25 29 29 28 29 30 32 33 32 30 30 28 27 28 30 30 27 23 25 27 27 28 29 30 31 31 36 35 34 34 35 33 32 29 28 28 28 28 28 24 28 28 27 26 26 27 30 31 31 29 28 30 29 27 29 30 30 28 27 28 29 30 30 30
32 28 29 32 32 30 28 28 nan nan 42 44 44 44 43 41 nan nan 45 41 nan 34 32 30 29 29 nan nan nan nan nan 31 28 28 28 30 29 27 22 19 21 24 24 26 31 33 33 32 30 29 30 31 nan nan nan nan nan nan nan nan nan nan nan nan 26 26 29 30 31 31 30 30 31 31 29 31 30 29 26 25 24 25 29 30 31
36 nan nan 36 37 35 32 30 nan 29 33 38 nan nan nan 37 36 36 35 39 43 42 nan nan nan nan nan nan nan nan nan nan 29 31 32 30 28 28 27 26 23 20 21 27 nan 30 27 27 nan nan nan nan nan nan nan nan nan nan nan nan nan nan nan nan 25 30 31 30 29 30 31 30 29 30 32 nan nan nan 24 23 24 27 28 27 29
nan nan nan nan 39 nan nan 36 35 34 nan nan nan nan nan nan nan nan 32 nan nan nan 39 36 36 35 31 32 nan nan nan nan nan nan nan nan nan nan nan nan nan nan nan nan nan nan nan nan nan nan nan nan nan nan nan nan nan nan nan nan nan nan nan 26 30 nan nan 29 nan nan nan nan nan nan nan nan nan nan nan 26 nan nan nan nan nan
nan nan nan nan nan nan nan nan nan nan nan nan nan nan nan nan nan 29 nan nan nan nan nan 37 35 nan 29 34 34 nan nan nan nan nan nan nan nan nan nan nan nan nan nan nan nan nan nan nan nan nan nan nan nan nan nan 24 nan nan nan nan nan nan nan nan nan nan nan nan nan nan nan nan nan nan nan nan nan nan nan nan nan nan nan nan nan
nan nan nan nan nan nan nan nan nan nan nan nan nan nan nan nan nan nan 34 nan nan nan nan nan nan nan nan nan nan nan nan nan nan nan nan nan nan nan nan nan nan nan nan nan nan nan nan nan nan nan nan nan nan nan nan nan nan nan nan nan nan nan nan nan nan nan nan nan nan nan nan nan nan nan nan nan nan nan nan nan nan nan nan nan nan
nan nan nan nan nan nan nan nan nan nan nan nan nan nan nan nan nan nan nan nan nan nan nan nan nan nan nan nan nan nan nan nan nan nan nan nan nan nan nan nan nan nan nan nan nan nan nan nan nan nan nan nan nan nan nan nan nan nan nan nan nan nan nan nan nan nan nan nan nan nan nan nan nan nan nan nan nan nan nan nan nan nan nan nan nan
nan nan nan nan nan nan nan nan nan nan nan nan nan nan nan nan nan nan nan nan nan nan nan nan nan nan nan nan nan nan nan nan nan nan nan nan nan nan nan nan nan nan nan nan nan nan nan nan nan nan nan nan nan nan nan nan nan nan nan nan nan nan nan nan nan nan nan nan nan nan nan nan nan nan nan nan nan nan nan nan nan nan nan nan nan
nan nan nan nan nan nan nan nan nan nan nan nan nan nan nan nan nan nan nan nan nan nan nan nan nan nan nan nan nan nan nan nan nan nan nan nan nan nan nan nan nan nan nan nan nan nan nan nan nan nan nan nan nan nan nan nan nan nan nan nan nan nan nan nan nan nan nan nan nan nan nan nan nan nan nan nan nan nan nan nan nan nan nan nan nan
nan nan nan nan nan nan nan nan nan nan nan nan nan nan nan nan nan nan nan nan nan nan nan nan nan nan nan nan nan nan nan nan nan nan nan nan nan nan nan nan nan nan nan nan nan nan nan nan nan nan nan nan nan nan nan nan nan nan nan nan nan nan nan nan nan nan nan nan nan nan nan nan nan nan nan nan nan nan nan nan nan nan nan nan nan
nan nan nan nan nan nan nan nan nan nan nan nan nan nan nan nan nan nan nan nan nan nan nan nan nan nan nan nan nan nan nan nan nan nan nan nan nan nan nan nan nan nan nan nan nan nan nan nan nan nan nan nan nan nan nan nan nan nan nan nan nan nan nan nan nan nan nan nan nan nan nan nan nan nan nan nan nan nan nan nan nan nan nan nan nan
nan nan nan nan nan nan nan nan nan nan nan nan nan nan nan nan nan nan nan nan nan nan nan nan nan nan nan nan nan nan nan nan nan nan nan nan nan nan nan nan nan nan nan nan nan nan nan nan nan nan nan nan nan nan nan nan nan nan nan nan nan nan nan nan nan nan nan nan nan nan nan nan nan nan nan nan nan nan nan nan nan nan nan nan nan
nan nan nan nan nan nan nan nan nan nan nan nan nan nan nan nan nan nan nan nan nan nan nan nan nan nan nan nan nan nan nan nan nan nan nan nan nan nan nan nan nan nan nan nan nan nan nan nan nan nan nan nan nan nan nan nan nan nan nan nan nan nan nan nan nan nan nan nan nan nan nan nan nan nan nan nan nan nan nan nan nan nan nan nan nan
nan nan nan nan nan nan nan nan nan nan nan nan nan nan nan nan nan nan nan nan nan nan nan nan nan nan nan nan nan nan nan nan nan nan nan nan nan nan nan nan nan nan nan nan nan nan nan nan nan nan nan nan nan nan nan nan nan nan nan nan nan nan nan nan nan nan nan nan nan nan nan nan nan nan nan nan nan nan nan nan nan nan nan nan nan
nan nan nan nan nan nan nan nan nan nan nan nan nan nan nan nan nan nan nan nan nan nan nan nan nan nan nan nan nan nan nan nan nan nan nan nan nan nan nan nan nan nan nan nan nan nan nan nan nan nan nan nan nan nan nan nan nan nan nan nan nan nan nan nan nan nan nan nan nan nan nan nan nan nan nan nan nan nan nan nan nan nan nan nan nan
nan nan nan nan nan nan nan nan nan nan nan nan nan nan nan nan nan nan nan nan nan nan nan nan nan nan nan nan nan nan nan nan nan nan nan nan nan nan nan nan nan nan nan nan nan nan nan nan nan nan nan nan nan nan nan nan nan nan nan nan nan nan nan nan nan nan nan nan nan nan nan nan nan nan nan nan nan nan nan nan nan nan nan nan nan
nan nan nan nan nan nan nan nan nan nan nan nan nan nan nan nan nan nan nan nan nan nan nan nan nan nan nan nan nan nan nan nan nan nan nan nan nan nan nan nan nan nan nan nan nan nan nan nan nan nan nan nan nan nan nan nan nan nan nan nan nan nan nan nan nan nan nan nan nan nan nan nan nan nan nan nan nan nan nan nan nan nan nan nan nan
nan nan nan nan nan nan nan nan nan nan nan nan nan nan nan nan nan nan nan nan nan nan nan nan nan nan nan nan nan nan nan nan nan nan nan nan nan nan nan nan nan nan nan nan nan nan nan nan nan nan nan nan nan nan nan nan nan nan nan nan nan nan nan nan nan nan nan nan nan nan nan nan nan nan nan nan nan nan nan nan nan nan nan nan nan
nan nan nan nan nan nan nan nan nan nan nan nan nan nan nan nan nan nan nan nan nan nan nan nan nan nan nan nan nan nan nan nan nan nan nan nan nan nan nan nan nan nan nan nan nan nan nan nan nan nan nan nan nan nan nan nan nan nan nan nan nan nan nan nan nan nan nan nan nan nan nan nan nan nan nan nan nan nan nan nan nan nan nan nan nan
nan nan nan nan nan nan nan nan nan nan nan nan nan nan nan nan nan nan nan nan nan nan nan nan nan nan nan nan nan nan nan nan nan nan nan nan nan nan nan nan nan nan nan nan nan nan nan nan nan nan nan nan nan nan nan nan nan nan nan nan nan nan nan nan nan nan nan nan nan nan nan nan nan nan nan nan nan nan nan nan nan nan nan nan nan
nan nan nan nan nan nan nan nan nan nan nan nan nan nan nan nan nan nan nan nan nan nan nan nan nan nan nan nan nan nan nan nan nan nan nan nan nan nan nan nan nan nan nan nan nan nan nan nan nan nan nan nan nan nan nan nan nan nan nan nan nan nan nan nan nan nan nan nan nan nan nan nan nan nan nan nan nan nan nan nan nan nan nan nan nan
nan nan nan nan nan nan nan nan nan nan nan nan nan nan nan nan nan nan nan nan nan nan nan nan nan nan nan nan nan nan nan nan nan nan nan nan nan nan nan nan nan nan nan nan nan nan nan nan nan nan nan nan nan nan nan nan nan nan nan nan nan nan nan nan nan nan nan nan nan nan nan nan nan nan nan nan nan nan nan nan nan nan nan nan nan
nan nan nan nan nan nan nan nan nan nan nan nan nan nan nan nan nan nan nan nan nan nan nan nan nan nan nan nan nan nan nan nan nan nan nan nan nan nan nan nan nan nan nan nan nan nan nan nan nan nan nan nan nan nan nan nan nan nan nan nan nan nan nan nan nan nan nan nan nan nan nan nan nan nan nan nan nan nan nan nan nan nan nan nan nan
nan nan nan nan nan nan nan nan nan nan nan nan nan nan nan nan nan nan nan nan nan nan nan nan nan nan nan nan nan nan nan nan nan nan nan nan nan nan nan nan nan nan nan nan nan nan nan nan nan nan nan nan nan nan nan nan nan nan nan nan nan nan nan nan nan nan nan nan nan nan nan nan nan nan nan nan nan nan nan nan nan nan nan nan nan
nan nan nan nan nan nan nan nan nan nan nan nan nan nan nan nan nan nan nan nan nan nan nan nan nan nan nan nan nan nan nan nan nan nan nan nan nan nan nan nan nan nan nan nan nan nan nan nan nan nan nan nan nan nan nan nan nan nan nan nan nan nan nan nan nan nan nan nan nan nan nan nan nan nan nan nan nan nan nan nan nan nan nan nan nan
nan nan nan nan nan nan nan nan nan nan nan nan nan nan nan nan nan nan nan nan nan nan nan nan nan nan nan nan nan nan nan nan nan nan nan nan nan nan nan nan nan nan nan nan nan nan nan nan nan nan nan nan nan nan nan nan nan nan nan nan nan nan nan nan nan nan nan nan nan nan nan nan nan nan nan nan nan nan nan nan nan nan nan nan nan
nan nan nan nan nan nan nan nan nan nan nan nan nan nan nan nan nan nan nan nan nan nan nan nan nan nan nan nan nan nan nan nan nan nan nan nan nan nan nan nan nan nan nan nan nan nan nan nan nan nan nan nan nan nan nan nan nan nan nan nan nan nan nan nan nan nan nan nan nan nan nan nan nan nan nan nan nan nan nan nan nan nan nan nan nan
nan nan nan nan nan nan nan nan nan nan nan nan nan nan nan nan nan nan nan nan nan nan nan nan nan nan nan nan nan nan nan nan nan nan nan nan nan nan nan nan nan nan nan nan nan nan nan nan nan nan nan nan nan nan nan nan nan nan nan nan nan nan nan nan nan nan nan nan nan nan nan nan nan nan nan nan nan nan nan nan nan nan nan nan nan
nan nan nan nan nan nan nan nan nan nan nan nan nan nan nan nan nan nan nan nan nan nan nan nan nan nan nan nan nan nan nan nan nan nan nan nan nan nan nan nan nan nan nan nan nan nan nan nan nan nan nan nan nan nan nan nan nan nan nan nan nan nan nan nan nan nan nan nan nan nan nan nan nan nan nan nan nan nan nan nan nan nan nan nan nan
nan nan nan nan nan nan nan nan nan nan nan nan nan nan nan nan nan nan nan nan nan nan nan nan nan nan nan nan nan nan nan nan nan nan nan nan nan nan nan nan nan nan nan nan nan nan nan nan nan nan nan nan nan nan nan nan nan nan nan nan nan nan nan nan nan nan nan nan nan nan nan nan nan nan nan nan nan nan nan nan nan nan nan nan nan
Wind_Direction
263 248 250 235 250 260 266 258 267 250 264 260 253 246 259 266 278 275 251 264 269 282 276 260 285 305 317 306 322 307 303 311 308 302 316 311 312 299 297 311 330 339 320 351 73 309 333 350 2 19 12 17 11 12 1 342 339 335 326 295 285 307 310 311 322 331 321 315 317 315 291 308 325 310 310 311 319 316 299 313 325 358 13 5 360
258 248 244 248 252 259 262 265 262 262 263 261 251 255 258 260 269 261 279 262 262 293 279 296 291 297 313 304 291 306 305 293 318 303 308 305 319 325 314 310 323 326 304 305 318 339 309 332 351 21 15 5 17 29 11 23 354 330 311 319 333 349 330 329 338 331 340 329 322 302 319 299 304 300 311 341 326 304 266 259 285 311 351 358 358
260 248 248 246 255 256 254 262 256 263 271 258 255 263 259 266 262 273 272 283 271 265 282 293 284 287 291 278 287 279 275 295 291 288 293 303 309 322 304 305 310 306 313 308 312 317 333 323 346 356 22 340 316 34 6 325 38 17 359 348 347 346 340 347 340 351 360 352 336 328 294 283 304 331 359 8 303 271 235 220 240 248 326 353 352
252 250 247 248 254 259 249 252 265 264 264 263 268 266 268 256 264 271 276 265 281 274 282 281 280 279 278 272 287 291 296 298 302 306 306 298 300 290 276 263 273 295 296 300 314 316 319 320 331 330 316 324 344 354 12 8 11 7 8 9 354 1 7 8 5 2 358 13 5 4 349 341 4 35 44 13 253 220 208 248 265 302 346 345 348
258 258 254 248 246 246 258 253 257 262 254 256 269 264 257 262 252 249 254 256 256 267 260 264 274 277 285 290 290 295 303 304 297 306 299 297 297 292 290 293 305 304 302 295 303 293 298 302 303 298 306 312 319 332 342 12 355 347 8 0 354 1 4 360 0 10 17 26 27 14 18 17 26 50 46 91 216 262 272 280 323 333 319 325 337
249 257 252 251 244 240 240 248 253 257 257 252 257 259 263 260 260 253 248 248 259 259 264 270 266 267 271 275 278 284 291 295 294 294 300 298 292 297 287 296 301 302 306 313 309 306 306 309 312 307 304 295 293 308 311 285 288 335 352 7 354 337 353 7 10 15 15 20 22 29 15 28 5 334 273 213 168 191 285 303 311 307 305 315 324
248 259 259 255 252 245 243 251 245 252 252 246 248 253 254 264 268 258 256 255 260 262 261 260 263 270 266 267 279 279 287 290 281 284 273 275 284 283 298 285 285 291 299 315 311 314 324 323 319 318 305 302 297 293 296 302 311 308 311 309 323 338 350 346 340 341 345 349 349 352 351 335 294 137 100 1 334 320 314 293 300 305 307 306 313
248 255 256 252 257 256 251 245 244 242 247 243 233 246 258 252 256 265 260 255 249 263 274 257 252 270 263 263 264 263 261 268 273 276 272 267 281 283 282 286 278 285 293 282 287 290 296 313 325 320 321 317 321 303 289 284 275 271 272 270 271 273 271 270 280 294 302 313 329 334 325 326 339 340 340 283 284 285 295 294 292 297 300 308 312
244 248 254 251 254 256 252 247 242 245 246 246 243 231 238 251 250 252 260 258 264 265 262 276 272 263 260 255 255 262 269 263 257 261 258 260 250 256 273 289 288 270 268 266 269 279 290 282 275 nan 305 322 338 324 312 291 289 284 283 277 275 275 278 281 285 283 288 295 298 304 310 310 312 315 297 293 272 271 295 289 292 294 301 303 308
246 246 250 247 251 255 255 249 247 245 246 244 241 241 237 235 247 257 253 252 247 247 252 251 259 270 270 266 266 270 270 272 272 278 284 265 267 263 258 258 264 268 265 268 268 261 258 273 284 258 273 313 11 331 314 302 300 296 287 287 289 288 291 293 295 300 300 300 296 289 290 296 292 285 278 281 291 287 277 276 280 289 292 303 308
245 248 248 244 248 255 253 251 249 248 248 247 245 239 239 237 234 238 245 250 248 244 244 250 256 257 272 278 273 271 270 252 247 309 307 299 281 274 269 262 257 257 262 259 256 253 250 244 248 259 288 292 285 298 302 313 311 297 294 295 295 291 287 288 291 289 290 291 290 290 288 285 284 284 287 283 281 274 278 279 282 286 290 290 295
246 242 237 238 236 237 243 252 252 251 250 250 249 247 245 242 239 239 242 246 251 247 249 249 247 245 252 261 270 nan 257 244 nan 240 249 250 252 258 263 260 261 262 268 275 273 270 266 267 271 270 276 285 293 305 315 313 305 305 306 303 302 301 297 290 283 279 279 271 270 275 275 280 283 284 283 282 284 287 290 289 294 291 290 291 290
234 242 244 244 234 238 243 247 252 253 252 250 249 248 248 248 247 245 246 244 242 246 248 252 255 253 249 245 246 254 255 240 239 245 243 242 238 241 257 260 257 253 250 250 256 268 274 274 270 266 265 247 250 244 257 288 304 311 312 306 300 299 303 309 313 310 290 284 283 287 290 282 282 287 285 283 287 290 293 300 298 299 299 301 299
238 249 251 253 250 248 237 239 250 252 251 250 248 248 249 248 250 251 246 245 246 242 240 241 244 247 252 256 258 254 253 240 239 242 245 243 243 242 251 252 258 259 255 250 246 248 251 257 257 258 259 261 258 253 248 246 273 288 286 283 283 286 299 315 315 318 302 291 290 292 292 289 288 284 286 288 289 297 304 309 304 305 309 312 308
238 238 246 251 254 254 258 251 244 246 247 249 249 248 243 243 246 246 243 240 236 244 248 251 250 252 256 259 260 259 254 244 241 241 244 245 243 250 253 252 251 252 252 254 259 255 253 257 258 259 260 259 256 248 249 249 249 260 269 270 272 272 270 273 275 276 282 291 295 297 293 287 284 286 290 293 298 305 311 308 300 302 309 312 310
248 243 247 248 248 250 250 249 244 239 239 244 247 244 244 243 242 242 245 250 258 258 252 252 257 257 259 262 263 262 256 246 245 245 246 244 249 257 256 256 255 254 256 256 254 259 256 255 257 259 262 261 252 245 247 251 255 255 256 256 259 262 264 276 272 266 264 266 271 272 275 280 293 295 294 292 293 296 294 295 297 301 302 299 297
240 243 247 249 249 250 250 249 248 244 247 246 244 241 240 239 244 251 259 259 256 259 257 254 255 257 256 259 260 259 257 249 246 247 248 246 251 259 256 255 255 251 248 249 253 254 257 257 260 262 263 261 256 251 246 246 259 258 259 256 258 261 266 272 276 274 275 273 274 272 270 269 269 271 271 275 285 288 291 289 294 294 294 292 292
235 241 246 247 247 247 248 250 250 247 246 250 247 244 243 246 248 252 255 254 252 254 256 252 249 251 254 260 261 260 259 254 249 249 250 248 252 257 258 256 254 251 251 252 256 259 259 258 258 260 260 260 253 251 248 253 260 259 257 256 259 264 269 268 269 268 261 261 261 263 272 279 284 291 292 287 280 287 290 292 290 290 293 292 287
233 239 249 253 251 248 248 249 249 247 243 242 243 247 247 249 251 255 259 261 257 252 254 256 253 249 251 255 258 257 256 255 251 250 252 254 257 260 257 257 255 254 254 256 256 259 265 265 264 263 262 263 263 261 258 260 265 263 261 260 263 263 265 265 267 267 268 269 270 270 273 279 289 285 281 273 281 293 299 300 295 295 294 291 290
237 239 246 250 252 250 247 249 248 247 245 247 249 252 251 251 256 260 263 263 261 257 254 253 253 249 247 250 252 252 252 251 249 250 254 256 261 266 262 254 252 251 255 258 257 263 265 270 264 262 261 261 262 264 265 266 269 266 266 268 268 267 264 265 266 268 271 274 276 278 281 285 283 283 282 282 285 290 293 297 294 291 294 294 295
245 246 247 249 252 250 245 242 244 245 246 246 244 247 251 254 253 255 259 260 262 258 255 249 246 244 243 247 249 247 248 249 251 249 252 257 264 271 264 250 246 248 256 259 259 262 265 266 267 263 260 259 261 259 265 268 271 270 270 269 269 267 267 270 268 263 268 272 276 277 277 276 278 280 283 286 287 286 290 292 292 294 294 292 293
250 247 246 250 253 249 242 241 242 244 248 248 246 244 246 251 253 258 257 254 251 258 258 249 246 243 243 249 254 255 254 253 257 257 259 262 267 269 269 256 247 249 250 262 267 268 268 269 267 267 264 259 255 255 254 259 265 272 271 273 269 265 267 270 272 274 272 267 265 268 271 274 275 276 279 282 283 284 281 282 288 294 297 298 300
250 248 251 253 255 251 247 241 nan nan 245 243 242 243 245 243 nan nan 248 248 nan 245 250 256 255 252 nan nan nan nan nan 258 257 262 263 263 265 268 265 256 233 240 242 254 258 257 260 268 269 268 263 261 nan nan nan nan nan nan nan nan nan nan nan nan 274 273 269 267 267 267 270 273 274 275 275 275 275 276 279 283 286 292 298 299 302
252 nan nan 260 260 257 256 255 nan 251 250 242 nan nan nan 233 234 237 245 250 251 250 nan nan nan nan nan nan nan nan nan nan 264 262 261 260 258 256 253 250 248 240 244 246 nan 250 251 257 nan nan nan nan nan nan nan nan nan nan nan nan nan nan nan nan 274 269 266 268 269 271 269 269 270 272 273 nan nan nan 288 292 294 290 289 292 293
nan nan nan nan 266 nan nan 271 266 266 nan nan nan nan nan nan nan nan 246 nan nan nan 240 239 238 244 246 261 nan nan nan nan nan nan nan nan nan nan nan nan nan nan nan nan nan nan nan nan nan nan nan nan nan nan nan nan nan nan nan nan nan nan nan 282 270 nan nan 269 nan nan nan nan nan nan nan nan nan nan nan 289 nan nan nan nan nan
nan nan nan nan nan nan nan nan nan nan nan nan nan nan nan nan nan 268 nan nan nan nan nan 249 249 nan 249 253 259 nan nan nan nan nan nan nan nan nan nan nan nan nan nan nan nan nan nan nan nan nan nan nan nan nan nan 274 nan nan nan nan nan nan nan nan nan nan nan nan nan nan nan nan nan nan nan nan nan nan nan nan nan nan nan nan nan
nan nan nan nan nan nan nan nan nan nan nan nan nan nan nan nan nan nan 252 nan nan nan nan nan nan nan nan nan nan nan nan nan nan nan nan nan nan nan nan nan nan nan nan nan nan nan nan nan nan nan nan nan nan nan nan nan nan nan nan nan nan nan nan nan nan nan nan nan nan nan nan nan nan nan nan nan nan nan nan nan nan nan nan nan nan
nan nan nan nan nan nan nan nan nan nan nan nan nan nan nan nan nan nan nan nan nan nan nan nan nan nan nan nan nan nan nan nan nan nan nan nan nan nan nan nan nan nan nan nan nan nan nan nan nan nan nan nan nan nan nan nan nan nan nan nan nan nan nan nan nan nan nan nan nan nan nan nan nan nan nan nan nan nan nan nan nan nan nan nan nan
nan nan nan nan nan nan nan nan nan nan nan nan nan nan nan nan nan nan nan nan nan nan nan nan nan nan nan nan nan nan nan nan nan nan nan nan nan nan nan nan nan nan nan nan nan nan nan nan nan nan nan nan nan nan nan nan nan nan nan nan nan nan nan nan nan nan nan nan nan nan nan nan nan nan nan nan nan nan nan nan nan nan nan nan nan
nan nan nan nan nan nan nan nan nan nan nan nan nan nan nan nan nan nan nan nan nan nan nan nan nan nan nan nan nan nan nan nan nan nan nan nan nan nan nan nan nan nan nan nan nan nan nan nan nan nan nan nan nan nan nan nan nan nan nan nan nan nan nan nan nan nan nan nan nan nan nan nan nan nan nan nan nan nan nan nan nan nan nan nan nan
nan nan nan nan nan nan nan nan nan nan nan nan nan nan nan nan nan nan nan nan nan nan nan nan nan nan nan nan nan nan nan nan nan nan nan nan nan nan nan nan nan nan nan nan nan nan nan nan nan nan nan nan nan nan nan nan nan nan nan nan nan nan nan nan nan nan nan nan nan nan nan nan nan nan nan nan nan nan nan nan nan nan nan nan nan
nan nan nan nan nan nan nan nan nan nan nan nan nan nan nan nan nan nan nan nan nan nan nan nan nan nan nan nan nan nan nan nan nan nan nan nan nan nan nan nan nan nan nan nan nan nan nan nan nan nan nan nan nan nan nan nan nan nan nan nan nan nan nan nan nan nan nan nan nan nan nan nan nan nan nan nan nan nan nan nan nan nan nan nan nan
nan nan nan nan nan nan nan nan nan nan nan nan nan nan nan nan nan nan nan nan nan nan nan nan nan nan nan nan nan nan nan nan nan nan nan nan nan nan nan nan nan nan nan nan nan nan nan nan nan nan nan nan nan nan nan nan nan nan nan nan nan nan nan nan nan nan nan nan nan nan nan nan nan nan nan nan nan nan nan nan nan nan nan nan nan
nan nan nan nan nan nan nan nan nan nan nan nan nan nan nan nan nan nan nan nan nan nan nan nan nan nan nan nan nan nan nan nan nan nan nan nan nan nan nan nan nan nan nan nan nan nan nan nan nan nan nan nan nan nan nan nan nan nan nan nan nan nan nan nan nan nan nan nan nan nan nan nan nan nan nan nan nan nan nan nan nan nan nan nan nan
nan nan nan nan nan nan nan nan nan nan nan nan nan nan nan nan nan nan nan nan nan nan nan nan nan nan nan nan nan nan nan nan nan nan nan nan nan nan nan nan nan nan nan nan nan nan nan nan nan nan nan nan nan nan nan nan nan nan nan nan nan nan nan nan nan nan nan nan nan nan nan nan nan nan nan nan nan nan nan nan nan nan nan nan nan
nan nan nan nan nan nan nan nan nan nan nan nan nan nan nan nan nan nan nan nan nan nan nan nan nan nan nan nan nan nan nan nan nan nan nan nan nan nan nan nan nan nan nan nan nan nan nan nan nan nan nan nan nan nan nan nan nan nan nan nan nan nan nan nan nan nan nan nan nan nan nan nan nan nan nan nan nan nan nan nan nan nan nan nan nan
nan nan nan nan nan nan nan nan nan nan nan nan nan nan nan nan nan nan nan nan nan nan nan nan nan nan nan nan nan nan nan nan nan nan nan nan nan nan nan nan nan nan nan nan nan nan nan nan nan nan nan nan nan nan nan nan nan nan nan nan nan nan nan nan nan nan nan nan nan nan nan nan nan nan nan nan nan nan nan nan nan nan nan nan nan
nan nan nan nan nan nan nan nan nan nan nan nan nan nan nan nan nan nan nan nan nan nan nan nan nan nan nan nan nan nan nan nan nan nan nan nan nan nan nan nan nan nan nan nan nan nan nan nan nan nan nan nan nan nan nan nan nan nan nan nan nan nan nan nan nan nan nan nan nan nan nan nan nan nan nan nan nan nan nan nan nan nan nan nan nan
nan nan nan nan nan nan nan nan nan nan nan nan nan nan nan nan nan nan nan nan nan nan nan nan nan nan nan nan nan nan nan nan nan nan nan nan nan nan nan nan nan nan nan nan nan nan nan nan nan nan nan nan nan nan nan nan nan nan nan nan nan nan nan nan nan nan nan nan nan nan nan nan nan nan nan nan nan nan nan nan nan nan nan nan nan
nan nan nan nan nan nan nan nan nan nan nan nan nan nan nan nan nan nan nan nan nan nan nan nan nan nan nan nan nan nan nan nan nan nan nan nan nan nan nan nan nan nan nan nan nan nan nan nan nan nan nan nan nan nan nan nan nan nan nan nan nan nan nan nan nan nan nan nan nan nan nan nan nan nan nan nan nan nan nan nan nan nan nan nan nan
nan nan nan nan nan nan nan nan nan nan nan nan nan nan nan nan nan nan nan nan nan nan nan nan nan nan nan nan nan nan nan nan nan nan nan nan nan nan nan nan nan nan nan nan nan nan nan nan nan nan nan nan nan nan nan nan nan nan nan nan nan nan nan nan nan nan nan nan nan nan nan nan nan nan nan nan nan nan nan nan nan nan nan nan nan
nan nan nan nan nan nan nan nan nan nan nan nan nan nan nan nan nan nan nan nan nan nan nan nan nan nan nan nan nan nan nan nan nan nan nan nan nan nan nan nan nan nan nan nan nan nan nan nan nan nan nan nan nan nan nan nan nan nan nan nan nan nan nan nan nan nan nan nan nan nan nan nan nan nan nan nan nan nan nan nan nan nan nan nan nan
nan nan nan nan nan nan nan nan nan nan nan nan nan nan nan nan nan nan nan nan nan nan nan nan nan nan nan nan nan nan nan nan nan nan nan nan nan nan nan nan nan nan nan nan nan nan nan nan nan nan nan nan nan nan nan nan nan nan nan nan nan nan nan nan nan nan nan nan nan nan nan nan nan nan nan nan nan nan nan nan nan nan nan nan nan
nan nan nan nan nan nan nan nan nan nan nan nan nan nan nan nan nan nan nan nan nan nan nan nan nan nan nan nan nan nan nan nan nan nan nan nan nan nan nan nan nan nan nan nan nan nan nan nan nan nan nan nan nan nan nan nan nan nan nan nan nan nan nan nan nan nan nan nan nan nan nan nan nan nan nan nan nan nan nan nan nan nan nan nan nan
nan nan nan nan nan nan nan nan nan nan nan nan nan nan nan nan nan nan nan nan nan nan nan nan nan nan nan nan nan nan nan nan nan nan nan nan nan nan nan nan nan nan nan nan nan nan nan nan nan nan nan nan nan nan nan nan nan nan nan nan nan nan nan nan nan nan nan nan nan nan nan nan nan nan nan nan nan nan nan nan nan nan nan nan nan
nan nan nan nan nan nan nan nan nan nan nan nan nan nan nan nan nan nan nan nan nan nan nan nan nan nan nan nan nan nan nan nan nan nan nan nan nan nan nan nan nan nan nan nan nan nan nan nan nan nan nan nan nan nan nan nan nan nan nan nan nan nan nan nan nan nan nan nan nan nan nan nan nan nan nan nan nan nan nan nan nan nan nan nan nan
nan nan nan nan nan nan nan nan nan nan nan nan nan nan nan nan nan nan nan nan nan nan nan nan nan nan nan nan nan nan nan nan nan nan nan nan nan nan nan nan nan nan nan nan nan nan nan nan nan nan nan nan nan nan nan nan nan nan nan nan nan nan nan nan nan nan nan nan nan nan nan nan nan nan nan nan nan nan nan nan nan nan nan nan nan
nan nan nan nan nan nan nan nan nan nan nan nan nan nan nan nan nan nan nan nan nan nan nan nan nan nan nan nan nan nan nan nan nan nan nan nan nan nan nan nan nan nan nan nan nan nan nan nan nan nan nan nan nan nan nan nan nan nan nan nan nan nan nan nan nan nan nan nan nan nan nan nan nan nan nan nan nan nan nan nan nan nan nan nan nan
nan nan nan nan nan nan nan nan nan nan nan nan nan nan nan nan nan nan nan nan nan nan nan nan nan nan nan nan nan nan nan nan nan nan nan nan nan nan nan nan nan nan nan nan nan nan nan nan nan nan nan nan nan nan nan nan nan nan nan nan nan nan nan nan nan nan nan nan nan nan nan nan nan nan nan nan nan nan nan nan nan nan nan nan nan
nan nan nan nan nan nan nan nan nan nan nan nan nan nan nan nan nan nan nan nan nan nan nan nan nan nan nan nan nan nan nan nan nan nan nan nan nan nan nan nan nan nan nan nan nan nan nan nan nan nan nan nan nan nan nan nan nan nan nan nan nan nan nan nan nan nan nan nan nan nan nan nan nan nan nan nan nan nan nan nan nan nan nan nan nan
nan nan nan nan nan nan nan nan nan nan nan nan nan nan nan nan nan nan nan nan nan nan nan nan nan nan nan nan nan nan nan nan nan nan nan nan nan nan nan nan nan nan nan nan nan nan nan nan nan nan nan nan nan nan nan nan nan nan nan nan nan nan nan nan nan nan nan nan nan nan nan nan nan nan nan nan nan nan nan nan nan nan nan nan nan